When you browse on this site, cookies collect data to enhance your experience and personalize the content and advertising you see.
Visit our Privacy Policy to learn more. By continuing to use the site, you agree to this use of cookies and data.
  • In Switzerland
  • List of Countries
  • For 7 days
  • Water Temperature
  • Satellite Maps
  • Weather Map
  • Weather Widgets
  • user-avatar
    Login

    Hourly Weather Maloe Hrenovo

    Today, 20 February, Wednesday

    Time Temperature Precipitation Wind Pressure Humidity
    00:00 -8°C° 0 mm 4 mps 746 mmHg 87%
    01:00 -8°C° 0 mm 5 mps 745 mmHg 86%
    02:00 -10°C° 0 mm 5 mps 745 mmHg 86%
    03:00 -8°C° 0 mm 4 mps 744 mmHg 86%
    04:00 -10°C° 0 mm 5 mps 744 mmHg 85%
    05:00 -10°C° 0 mm 5 mps 743 mmHg 85%
    06:00 -10°C° 0 mm 6 mps 743 mmHg 84%
    07:00 -9°C° 0 mm 6 mps 742 mmHg 85%
    08:00 -9°C° 0 mm 6 mps 742 mmHg 86%
    09:00 -9°C° 0 mm 6 mps 742 mmHg 87%
    10:00 -8°C° 0 mm 6 mps 741 mmHg 88%
    11:00 -6°C° 0 mm 6 mps 741 mmHg 89%
    12:00 -5°C° 0 mm 6 mps 740 mmHg 89%
    13:00 -4°C° 0 mm 6 mps 740 mmHg 89%
    14:00 -4°C° 0 mm 6 mps 740 mmHg 89%
    15:00 -3°C° 0 mm 7 mps 740 mmHg 89%
    16:00 -3°C° 0.1 mm 6 mps 739 mmHg 90%
    17:00 -3°C° 0.1 mm 6 mps 739 mmHg 90%
    18:00 -3°C° 0.1 mm 6 mps 739 mmHg 91%
    19:00 -3°C° 0.1 mm 6 mps 739 mmHg 91%
    20:00 -2°C° 0.1 mm 6 mps 739 mmHg 91%
    21:00 -2°C° 0.1 mm 6 mps 738 mmHg 91%
    22:00 -1°C° 0.1 mm 5 mps 738 mmHg 91%
    23:00 -1°C° 0.1 mm 5 mps 738 mmHg 91%

    Tomorrow, 21 February, Thursday

    Time Temperature Precipitation Wind Pressure Humidity
    00:00 -1°C° 0.1 mm 5 mps 737 mmHg 91%
    01:00 -1°C° 0 mm 5 mps 737 mmHg 91%
    02:00 -1°C° 0 mm 5 mps 737 mmHg 91%
    03:00 -1°C° 0 mm 5 mps 736 mmHg 90%
    04:00 -1°C° 0.1 mm 5 mps 736 mmHg 90%
    05:00 -2°C° 0.1 mm 5 mps 735 mmHg 90%
    06:00 -2°C° 0.1 mm 5 mps 735 mmHg 90%
    07:00 -3°C° 0.4 mm 6 mps 734 mmHg 90%
    08:00 -3°C° 0.4 mm 6 mps 734 mmHg 91%
    09:00 -3°C° 0.4 mm 6 mps 734 mmHg 92%
    10:00 -2°C° 0.5 mm 5 mps 734 mmHg 92%
    11:00 -2°C° 0.5 mm 5 mps 734 mmHg 93%
    12:00 -2°C° 0.5 mm 4 mps 734 mmHg 94%
    13:00 -2°C° 0.1 mm 4 mps 734 mmHg 91%
    14:00 -3°C° 0.1 mm 4 mps 735 mmHg 89%
    15:00 -3°C° 0.1 mm 4 mps 735 mmHg 86%
    16:00 -4°C° 0.1 mm 3 mps 735 mmHg 88%
    17:00 -5°C° 0.1 mm 3 mps 735 mmHg 90%
    18:00 -4°C° 0.1 mm 2 mps 735 mmHg 92%
    19:00 -4°C° 0.2 mm 2 mps 735 mmHg 93%
    20:00 -4°C° 0.2 mm 2 mps 735 mmHg 94%
    21:00 -5°C° 0.2 mm 3 mps 735 mmHg 95%
    22:00 -5°C° 0.2 mm 3 mps 736 mmHg 94%
    23:00 -5°C° 0.2 mm 4 mps 736 mmHg 94%

    Day after tomorrow, 22 February, Friday

    Time Temperature Precipitation Wind Pressure Humidity
    00:00 -6°C° 0.2 mm 5 mps 736 mmHg 94%
    01:00 -8°C° 0.2 mm 6 mps 736 mmHg 92%
    02:00 -10°C° 0.2 mm 6 mps 737 mmHg 90%
    03:00 -12°C° 0.2 mm 7 mps 737 mmHg 89%
    04:00 -12°C° 0.2 mm 7 mps 737 mmHg 88%
    05:00 -13°C° 0.2 mm 7 mps 737 mmHg 88%
    06:00 -13°C° 0.2 mm 7 mps 738 mmHg 88%
    07:00 -14°C° 0.1 mm 7 mps 738 mmHg 87%
    08:00 -14°C° 0.1 mm 7 mps 739 mmHg 87%
    09:00 -14°C° 0.1 mm 7 mps 739 mmHg 87%
    10:00 -14°C° 0.1 mm 7 mps 740 mmHg 86%
    11:00 -14°C° 0.1 mm 6 mps 741 mmHg 85%
    12:00 -14°C° 0.1 mm 6 mps 741 mmHg 84%
    13:00 -14°C° 0.1 mm 6 mps 742 mmHg 83%
    14:00 -14°C° 0.1 mm 6 mps 742 mmHg 83%
    15:00 -12°C° 0.1 mm 6 mps 743 mmHg 82%
    16:00 -13°C° 0 mm 5 mps 743 mmHg 84%
    17:00 -14°C° 0 mm 5 mps 744 mmHg 85%
    18:00 -14°C° 0 mm 4 mps 745 mmHg 87%
    19:00 -15°C° 0 mm 4 mps 746 mmHg 88%
    20:00 -15°C° 0 mm 4 mps 746 mmHg 89%
    21:00 -15°C° 0 mm 4 mps 747 mmHg 90%
    22:00 -15°C° 0 mm 4 mps 747 mmHg 90%
    23:00 -15°C° 0 mm 4 mps 748 mmHg 90%

    23 February, Saturday

    Time Temperature Precipitation Wind Pressure Humidity
    00:00 -15°C° 0 mm 4 mps 749 mmHg 91%
    01:00 -15°C° 0 mm 4 mps 749 mmHg 91%
    02:00 -15°C° 0 mm 4 mps 750 mmHg 91%
    03:00 -15°C° 0 mm 4 mps 750 mmHg 91%
    04:00 -15°C° 0 mm 4 mps 751 mmHg 91%
    05:00 -15°C° 0 mm 4 mps 752 mmHg 91%
    06:00 -15°C° 0 mm 4 mps 752 mmHg 91%
    07:00 -15°C° 0 mm 4 mps 753 mmHg 91%
    08:00 -15°C° 0 mm 4 mps 753 mmHg 90%
    09:00 -15°C° 0 mm 4 mps 754 mmHg 90%
    10:00 -14°C° 0 mm 3 mps 755 mmHg 88%
    11:00 -13°C° 0 mm 3 mps 755 mmHg 86%
    12:00 -13°C° 0 mm 3 mps 756 mmHg 84%
    13:00 -13°C° 0 mm 3 mps 756 mmHg 83%
    14:00 -12°C° 0 mm 3 mps 756 mmHg 83%
    15:00 -12°C° 0 mm 3 mps 756 mmHg 83%
    16:00 -12°C° 0 mm 2 mps 756 mmHg 85%
    17:00 -13°C° 0 mm 2 mps 757 mmHg 87%
    18:00 -11°C° 0 mm 1 mps 757 mmHg 90%
    19:00 -12°C° 0 mm 1 mps 757 mmHg 90%
    20:00 -13°C° 0 mm 1 mps 757 mmHg 91%
    21:00 -14°C° 0 mm 1 mps 758 mmHg 92%
    22:00 -14°C° 0 mm 1 mps 758 mmHg 92%
    23:00 -15°C° 0 mm 1 mps 758 mmHg 93%

    24 February, Sunday

    Time Temperature Precipitation Wind Pressure Humidity
    00:00 -15°C° 0 mm 1 mps 758 mmHg 94%
    01:00 -15°C° 0 mm 1 mps 758 mmHg 94%
    02:00 -15°C° 0 mm 1 mps 758 mmHg 93%
    03:00 -15°C° 0 mm 1 mps 758 mmHg 93%
    04:00 -16°C° 0 mm 1 mps 758 mmHg 94%
    05:00 -16°C° 0 mm 1 mps 758 mmHg 94%
    06:00 -16°C° 0 mm 1 mps 758 mmHg 94%
    07:00 -15°C° 0 mm 1 mps 758 mmHg 94%
    08:00 -15°C° 0 mm 1 mps 759 mmHg 94%
    09:00 -14°C° 0 mm 1 mps 759 mmHg 93%
    10:00 -13°C° 0 mm 1 mps 759 mmHg 92%
    11:00 -11°C° 0 mm 1 mps 759 mmHg 90%
    12:00 -10°C° 0 mm 1 mps 759 mmHg 88%
    13:00 -9°C° 0 mm 1 mps 759 mmHg 88%
    14:00 -9°C° 0 mm 1 mps 759 mmHg 88%
    15:00 -8°C° 0 mm 1 mps 759 mmHg 88%
    16:00 -9°C° 0 mm 1 mps 759 mmHg 90%
    17:00 -10°C° 0 mm 1 mps 759 mmHg 92%
    18:00 -11°C° 0 mm 1 mps 759 mmHg 93%
    19:00 -12°C° 0 mm 1 mps 759 mmHg 93%
    20:00 -12°C° 0 mm 1 mps 759 mmHg 93%
    21:00 -15°C° 0 mm 2 mps 759 mmHg 93%
    22:00 -16°C° 0 mm 2 mps 759 mmHg 92%
    23:00 -16°C° 0 mm 2 mps 759 mmHg 90%

    25 February, Monday

    Time Temperature Precipitation Wind Pressure Humidity
    00:00 -16°C° 0 mm 2 mps 759 mmHg 89%
    01:00 -16°C° 0 mm 2 mps 759 mmHg 87%
    02:00 -16°C° 0 mm 2 mps 759 mmHg 86%
    03:00 -17°C° 0 mm 2 mps 759 mmHg 84%
    04:00 -17°C° 0 mm 2 mps 758 mmHg 85%
    05:00 -17°C° 0 mm 2 mps 758 mmHg 86%
    06:00 -17°C° 0 mm 2 mps 757 mmHg 86%
    07:00 -16°C° 0 mm 2 mps 757 mmHg 88%
    08:00 -16°C° 0 mm 3 mps 757 mmHg 89%
    09:00 -15°C° 0 mm 3 mps 756 mmHg 90%
    10:00 -14°C° 0 mm 3 mps 756 mmHg 90%
    11:00 -12°C° 0 mm 4 mps 755 mmHg 89%
    12:00 -11°C° 0 mm 4 mps 755 mmHg 89%
    13:00 -10°C° 0 mm 4 mps 754 mmHg 89%
    14:00 -9°C° 0 mm 4 mps 753 mmHg 90%
    15:00 -9°C° 0 mm 4 mps 752 mmHg 90%
    16:00 -9°C° 0 mm 4 mps 752 mmHg 91%
    17:00 -10°C° 0 mm 4 mps 751 mmHg 92%
    18:00 -11°C° 0 mm 4 mps 750 mmHg 93%
    19:00 -10°C° 0 mm 4 mps 750 mmHg 93%
    20:00 -10°C° 0 mm 4 mps 749 mmHg 94%
    21:00 -10°C° 0 mm 4 mps 749 mmHg 95%
    22:00 -9°C° 0 mm 3 mps 749 mmHg 95%
    23:00 -9°C° 0 mm 3 mps 749 mmHg 96%
    Show more